STARLINK-36449, 67308

Orbit data source: Space-Track

STARLINK-36449, 67308 is a payload satellite owned by SpaceX/Seattle (US) in LEO that was launched on Sun, 04 Jan 2026 UTC via an FALCON 9 launch vehicle from the Air Force Eastern Test Range (AFETR). Payload-class satellites include a variety of spacecraft equipped with specific instruments for various scientific and technological missions. These include communications satellites like Starlink; space stations such as the ISS; scientific satellites like the Hubble; Earth observation satellites from companies like Planet Labs, Umbra, and HawkEye 360; GPS; miniature CubeSats for education and research; and military/defense satellites.

Loading next visibility...
Identifier
67308, 2026-002D
Orbit
LEO
Country
Flag of USUS
Related business
Manufacturer
SpaceX/Seattle
Mission
Operational Commercial Communications
Bus & Motor
STARLINK V2MO, Unknown motor
Mass
575 kg wet, ~530 kg dry
Launch date (UTC)
2026-01-04 (2 months ago)
Launch vehicle
FALCON 9
Launch site
Air Force Eastern Test Range (AFETR)
Object type
Payload
Rocket body
Debris
Shape & HBR
Box + 2 Pan, 17.7 m
Radar Cross Section
36.964 m²

Expand to show TLE details & history
Last TLE update: 23 hours ago

TLE from 23 hours ago
0 STARLINK-36449
1 67308U 26002D   26062.24707906  .00029304  00000-0  10695-2 0  9996
2 67308  43.0004   1.6459 0001024 274.4330  85.6404 15.27600404 10155
Epoch: 2026-03-03T05:55Z
TLE epoch observation values (Epoch: 2026-03-03T05:55:47.630Z)
Latitude
-0.00008°
Longitude
111.66848°
Altitude
482.71 km
Speed
7.626 km/s
True Right ascension
00h 06m 34s
True Declination
0° 00' 00"
Sunlit
Object was in daylight at epoch
Visualization orbit readout
Latitude
Unknown
Longitude
Unknown
Altitude
Unknown
Speed
Unknown
Apparent Right ascension
Unknown
Apparent Declination
Unknown
Sunlit
N/A
Visualization observer readout
Local Sidereal Time
09:11:51
Azimuth
Unknown
Elevation
Unknown
Doppler factor
Unknown
Orbital elements
Apogee altitude
485.636 km
Perigee altitude
484.23 km
Semi-major axis
6,863.07 km
Eccentricity
0.0001
Inclination
43.0004°
RAAN
1.6459°
Arg. of periapsis
274.433°
True anomaly
85.6521°
Mean anomaly
85.6404°
Eccentric anomaly
85.64625°
Mean motion
3.81738 °/min
Orbital period
94.31 mins
BSTAR
0.0010695
Loading maneuver chart data...
Computing Atmospheric mass density...
Loading historical data...
Loading historical data...
Loading historical data...
Loading historical data...
Loading historical data...
Loading historical data...
Loading historical data...

Documentation

Showing up to 5 results
|